Location: Unspecified
(50.7965°N, 0.0000°E)
Time: 00:18:47
(UTC+00:00)

Meteor 1-23 Rocket - Visible Passes

Search period start: 05 April 2026 00:00
Search period end: 15 April 2026 00:00
Orbit: 841 x 881 km, 81.3° (Epoch: 29 March)

Date Brightness Start Highest point End Pass type
(mag) Time Alt. Az. Time Alt. Az. Time Alt. Az.
5 Apr 6.8 19:35:08 10° NW 19:39:38 24° W 19:44:04 10° SW visible
6 Apr 6.9 19:26:16 10° NW 19:30:47 24° W 19:35:16 10° SW visible
7 Apr 6.9 19:17:24 10° NNW 19:21:57 25° W 19:26:28 10° SW visible
8 Apr 6.9 19:08:31 10° NNW 19:13:07 25° W 19:17:40 10° SW visible
